Torna al catalogo

PRAETORIAN SDA_501

AttivoPO
NORAD 100059·PAYLOAD·🇺🇸 United States

Lanciato Jul 16, 2026 da Vandenberg Space Force Base

Loading…

Prossimi Passaggi (prossime 24 ore)

TLE

AggiornatoSource: Space-Track

Epoca: Sep 13, 2026, 23:20 UTC

1 A0059U 26163A   26256.97236635  .00000155  00000-0  12473-3 0  9995
2 A0059  81.4780 255.9263 0014123  56.0482 304.2016 13.85492050  8193

Traccia PRAETORIAN SDA_501 in tempo reale con AllMySat

Download on the App Store